Skip Page Navigation
NASA JPL Caltech
NASA Logo - Jet Propulsion Laboratory + View the NASA Portal
+ Center for Near-Earth Object Studies
JPL Home Earth Solar System Stars & Galaxies Technology
JPL Solar System Dynamics
BODIES ORBITS EPHEMERIDES TOOLS PHYSICAL DATA DISCOVERY FAQ SITE MAP
JPL Small-Body Database Browser
Search: [ help ]  
305530 (2008 FZ125)
Classification: Main-belt Asteroid          SPK-ID: 2305530
Ephemeris | Orbit Diagram | Orbital Elements | Mission Design | Physical Parameters | Discovery Circumstances | Close-Approach Data ]

[ show orbit diagram ]
Orbital Elements at Epoch 2459000.5 (2020-May-31.0) TDB
Reference: JPL 7 (heliocentric ecliptic J2000)
 Element Value Uncertainty (1-sigma)   Units 
e .1906803541314988 9.8635e-08  
a 2.887506323371614 5.1241e-08 au
q 2.336915595074173 2.7863e-07 au
i 9.683841962657738 7.9674e-06 deg
node 115.0955043018119 7.1751e-05 deg
peri 322.2448775664171 7.6735e-05 deg
M 243.8912413851744 3.5616e-05 deg
tp 2459578.523271718717
(2021-Dec-30.02327172)
0.00018772 TDB
period 1792.185019469907
4.91
4.7706e-05
1.306e-07
d
yr
n .2008721176045099 5.347e-09 deg/d
Q 3.438097051669055 6.1012e-08 au
  Orbit Determination Parameters
   # obs. used (total)      77  
   data-arc span      6491 days (17.77 yr)  
   first obs. used      2001-09-25  
   last obs. used      2019-07-04  
   planetary ephem.      DE431  
   SB-pert. ephem.      SB431-N16  
   condition code      0  
   norm. resid. RMS      .62996  
   source      ORB  
   producer      Otto Matic  
   solution date      2019-Sep-24 05:54:50  

Additional Information
 Earth MOID = 1.36106 au 
 Jupiter MOID = 1.83725 au 
 T_jup = 3.244 
[ show covariance matrix ]

Ephemeris | Orbit Diagram | Orbital Elements | Mission Design | Physical Parameters | Discovery Circumstances | Close-Approach Data ]

Physical Parameter Table
Parameter Symbol Value Units Sigma Reference Notes
absolute magnitude H 17.0   n/a MPO446456  

305530 (2008 FZ125)          Discovered 2008-Mar-29 by Sarneczky, K. at Piszkesteto
Reference: 20111110/Numbers.arcLast Updated: 2011-11-14

[ show close-approach data ]
Ephemeris | Orbit Diagram | Orbital Elements | Mission Design | Physical Parameters | Discovery Circumstances | Close-Approach Data ]
ABOUT SSD CREDITS/AWARDS PRIVACY/COPYRIGHT GLOSSARY LINKS
FirstGov 2020-Jul-15 10:01 UT
(server date/time)  
NASA Home Page
Site Manager:   Ryan S. Park
Webmaster  Alan B. Chamberlin